Helicity
46 23 44 32 32 31 52 53 39 50 32 28 21 7 6 -2 1 5 17 36 20 20 31 27 28 44 56 59 49 49 58 64 46 39 64 37 42 3 3 -5 -78 -79 -17
30 -25 34 43 44 36 39 47 46 29 28 35 33 16 23 18 16 20 15 22 12 15 20 20 20 32 21 28 47 60 64 78 51 36 48 27 71 63 32 -20 -12 -31 25
59 55 45 76 50 45 38 48 53 40 34 27 27 34 25 20 23 22 12 17 18 16 12 9 15 16 17 39 53 45 34 46 55 32 47 68 82 57 57 -6 -61 -73 35
103 96 63 95 97 123 49 53 56 52 45 38 33 30 36 35 34 36 23 24 24 25 10 9 9 10 11 13 16 30 35 30 22 46 18 44 63 62 48 -81 -40 -5 15
40 3 62 64 47 71 100 67 86 80 82 50 46 51 51 56 48 40 37 33 30 21 20 19 18 17 23 17 15 23 34 27 23 15 17 22 27 38 43 3 -39 -24 -10
40 62 106 122 157 186 173 85 93 107 111 105 74 76 59 105 173 121 64 37 34 31 28 33 34 41 30 41 33 15 24 25 15 11 -1 7 16 23 25 18 -7 -20 -13
179 142 152 144 114 139 164 261 180 110 77 92 125 119 167 171 136 101 72 44 36 36 39 41 34 32 57 41 45 42 36 39 52 41 25 16 17 31 35 14 -4 -7 -10
211 192 159 139 111 74 56 38 95 97 115 98 81 94 104 127 203 149 97 71 57 59 56 59 51 84 142 123 50 33 31 28 49 61 54 33 31 31 50 42 42 32 60
269 191 156 118 110 76 62 62 64 74 103 88 76 111 106 132 246 285 176 108 129 102 138 180 159 144 119 135 82 50 36 38 49 55 59 35 33 24 46 73 66 29 14
238 232 173 128 123 97 98 109 99 105 116 86 95 81 135 129 184 270 275 151 118 121 64 68 96 121 129 108 92 80 73 70 89 71 55 50 40 45 71 112 64 59 21
160 193 168 148 127 114 103 121 113 115 102 97 94 109 136 138 108 147 225 151 172 189 149 119 98 104 102 74 36 51 69 84 51 36 32 40 42 38 39 107 81 65 18
109 132 137 132 107 95 104 124 133 126 122 97 79 83 96 87 131 93 110 111 102 118 136 76 48 74 87 80 58 70 60 61 33 43 55 62 77 83 76 94 108 73 53
68 66 69 83 95 95 95 91 79 88 91 83 50 57 80 98 100 55 49 61 78 99 64 61 38 68 74 87 48 89 37 25 71 71 72 73 75 79 73 39 32 38 43
42 40 36 38 65 80 74 77 75 77 80 88 93 90 84 86 95 99 100 106 91 85 86 55 48 8 -5 9 65 114 116 148 126 93 66 70 63 53 60 67 62 55 59
29 39 43 45 51 68 129 153 129 152 185 147 149 142 146 125 116 110 105 104 104 104 117 98 106 113 115 116 106 97 95 93 83 77 84 73 64 61 60 63 70 66 62
17 20 41 49 55 78 68 108 212 180 185 207 217 250 139 176 157 146 133 124 117 108 88 127 134 147 144 142 133 125 119 122 128 112 93 89 76 74 79 83 70 67 66
36 60 57 64 68 76 85 73 90 125 134 145 159 193 205 192 181 185 157 118 88 74 117 122 120 113 108 105 102 99 93 89 80 75 75 82 85 76 66 64 60 77 86
66 133 71 95 112 115 110 115 113 91 94 106 101 123 118 130 131 152 155 109 91 73 112 102 85 64 54 53 58 62 64 65 60 66 57 51 63 69 69 74 83 82 84
59 72 88 107 122 137 132 128 126 127 139 140 105 63 56 71 42 42 95 118 108 94 86 85 87 88 82 76 67 54 49 46 50 43 51 62 69 72 69 66 73 88 133
85 157 114 120 118 118 125 128 127 122 113 116 114 133 121 75 87 93 82 83 79 77 71 62 65 66 71 72 77 74 68 68 60 47 44 43 43 51 53 61 57 61 76
94 105 93 96 98 102 109 120 122 111 107 105 96 108 104 84 92 88 87 80 74 67 60 56 49 40 31 26 14 6 3 12 23 31 32 29 30 25 44 62 69 63 70
99 96 81 87 98 98 92 92 88 89 88 86 77 64 39 52 85 82 80 72 71 60 53 48 38 34 25 17 13 9 5 -4 -6 -2 2 5 10 19 32 37 28 28 53
104 89 81 85 91 115 101 82 77 74 72 72 74 70 54 69 66 65 63 59 52 41 35 16 6 -1 -1 -1 1 -12 -20 -25 -25 -18 -20 -6 8 14 32 41 37 37 56
129 104 89 83 80 74 69 76 74 89 92 64 56 59 60 61 59 55 39 47 39 27 15 4 -0 -14 -33 -44 -61 -86 -92 -63 -40 -58 -70 -44 -17 -0 6 10 19 16 44
184 161 116 95 102 68 70 53 55 55 49 41 38 38 43 47 48 47 44 36 33 33 28 22 8 14 -1 -6 -34 -27 4 -13 -39 -52 -3 -4 6 13 49 73 56 66 45
211 193 150 112 127 99 88 67 52 46 36 35 39 43 47 44 40 44 41 42 37 39 43 39 39 21 17 -7 -16 5 19 30 45 82 94 101 103 119 129 130 105 154 115
Wind_Speed
46 34 41 27 34 37 42 40 34 39 42 34 25 12 19 14 12 11 32 42 34 38 43 42 46 46 55 50 49 51 51 50 58 60 48 48 57 61 64 65 55 46 42
46 20 27 19 25 35 37 43 43 39 40 37 35 27 24 20 22 12 11 29 26 30 38 42 47 44 27 26 32 52 59 56 62 68 67 68 53 61 62 68 68 68 67
33 30 32 25 31 42 41 40 43 46 38 39 38 36 35 26 25 25 23 20 18 20 33 37 37 37 36 51 47 62 57 51 51 67 71 63 60 62 65 69 66 52 22
35 35 33 51 43 41 33 42 41 43 42 43 40 39 37 33 26 23 22 26 29 29 35 36 37 38 41 46 41 37 42 52 61 45 65 64 52 56 44 47 63 65 64
7 22 15 29 27 31 35 36 36 38 39 41 37 34 33 33 33 30 32 30 32 32 33 35 31 35 42 43 45 44 50 44 47 52 52 49 48 54 61 66 63 66 67
4 11 17 20 22 25 30 33 31 32 36 39 40 39 35 33 43 44 43 38 34 33 36 35 36 35 35 30 32 34 44 49 50 55 59 56 59 55 55 62 67 68 70
10 15 15 15 23 25 25 32 27 29 29 31 35 32 34 42 49 46 46 45 41 41 42 42 42 39 37 41 34 34 42 39 34 45 54 59 65 60 63 68 70 73 75
12 15 19 19 21 21 18 11 19 24 32 27 26 30 34 41 45 44 44 45 42 42 45 46 45 48 49 51 51 52 51 52 45 44 45 55 56 57 55 60 67 74 55
14 16 19 18 17 17 17 19 21 27 28 31 23 26 33 41 46 46 45 40 42 41 41 41 41 45 52 55 53 54 57 56 59 49 51 61 66 71 67 64 64 72 79
23 21 18 20 23 26 27 29 30 28 27 19 26 25 28 37 48 48 48 47 42 42 38 39 42 47 54 54 53 55 56 57 63 69 72 72 65 57 44 41 58 67 76
22 24 24 24 27 30 32 35 35 31 27 24 23 26 31 36 41 44 44 44 52 53 48 47 48 56 58 55 53 53 54 61 64 66 68 67 66 67 65 48 46 58 75
23 24 27 30 33 33 34 34 33 30 28 27 27 27 31 33 41 43 43 44 49 47 51 55 58 63 64 61 57 53 59 62 62 64 67 67 67 67 68 68 70 73 77
28 28 28 34 37 35 34 33 32 31 31 32 32 33 35 38 40 43 43 47 49 48 49 57 59 60 64 61 55 65 68 63 66 67 67 69 69 69 73 73 69 67 64
34 35 35 35 36 38 33 33 33 33 36 37 37 38 38 41 45 50 53 53 52 52 55 56 54 51 48 53 54 56 60 63 67 71 73 73 74 74 75 73 75 75 78
36 38 39 40 40 38 38 40 39 41 42 43 41 45 46 46 51 54 54 55 57 57 60 53 54 55 55 57 58 58 60 62 65 66 70 75 77 78 78 76 76 79 81
41 43 43 43 42 41 40 38 39 38 40 42 44 47 42 47 53 55 57 55 56 56 52 55 56 56 57 60 62 62 62 64 67 71 73 74 78 80 82 82 81 81 83
48 47 46 48 47 46 45 44 43 40 39 40 41 44 48 51 52 55 54 53 53 53 53 54 57 59 60 61 62 65 66 66 71 72 75 77 80 84 87 86 86 87 90
44 47 46 46 46 45 46 45 45 44 46 45 40 43 46 47 48 50 51 53 48 49 54 57 59 61 64 66 67 69 71 73 74 77 79 80 81 82 86 86 87 91 93
42 42 43 41 41 42 42 43 43 43 45 45 42 42 43 44 42 45 50 50 52 54 56 58 60 63 66 68 71 73 76 78 80 80 81 83 85 86 90 90 91 93 96
36 37 36 35 35 36 37 38 40 42 41 42 42 44 48 46 44 46 47 49 52 54 57 60 62 64 67 70 73 75 78 81 82 84 86 87 88 90 94 97 98 99 100
31 30 34 34 35 35 35 36 37 39 40 41 41 40 44 45 46 47 49 51 54 56 59 61 64 66 68 71 74 77 81 83 85 88 90 92 94 98 100 101 102 105 107
28 29 30 33 33 34 34 34 35 36 38 40 41 39 43 45 47 49 50 52 55 57 59 62 65 68 70 74 77 81 84 86 88 90 94 98 100 102 104 107 109 109 112
30 30 29 31 31 32 34 37 38 38 40 42 43 45 45 47 48 51 53 55 56 59 61 63 67 70 72 74 77 81 86 89 91 94 100 103 105 106 107 112 114 116 117
30 30 31 30 30 31 35 37 39 42 45 43 43 45 47 49 51 52 54 56 58 60 61 64 67 70 72 77 79 81 84 87 92 97 101 104 107 109 110 113 115 119 122
37 34 34 31 31 33 34 39 38 39 40 42 45 46 48 49 52 53 54 55 57 60 61 64 66 70 75 81 83 84 87 97 99 100 102 104 108 112 113 115 116 118 119
51 40 30 30 31 31 31 34 36 37 40 42 44 46 48 50 52 53 55 56 59 61 64 64 67 72 78 80 81 89 97 97 99 102 101 101 104 105 105 108 111 114 117
Wind_Direction
265 280 274 291 291 288 280 283 297 289 281 287 308 352 324 351 15 22 299 280 299 294 287 291 285 285 268 278 281 281 285 291 267 268 307 316 304 291 294 302 279 277 298
270 289 288 294 297 294 290 280 280 288 284 284 295 304 309 323 319 343 357 316 319 310 300 295 288 289 313 311 309 289 280 289 286 278 285 284 318 313 315 304 307 300 311
282 289 287 294 292 287 291 286 281 278 288 286 289 292 296 314 317 312 320 332 338 332 313 306 307 306 308 288 295 272 285 299 301 287 288 301 309 312 311 305 293 290 3
281 285 298 278 288 285 297 285 283 280 282 282 287 288 293 301 315 323 325 320 316 316 310 310 308 305 302 298 305 310 309 299 292 309 290 298 314 315 325 258 287 302 315
344 301 328 304 303 288 286 292 286 283 283 284 287 292 295 297 302 305 306 314 312 310 310 310 315 310 302 304 303 305 301 313 315 308 311 316 319 316 308 299 282 296 312
348 327 328 319 322 313 292 282 287 287 289 288 288 289 294 297 295 294 294 301 307 307 306 310 311 313 314 316 314 314 309 307 308 303 301 308 308 316 319 310 295 296 300
343 345 358 358 310 313 310 281 297 297 297 297 295 299 300 299 296 296 295 295 300 301 301 304 306 310 313 312 318 317 311 312 313 311 307 306 304 311 311 305 298 295 297
321 324 333 333 330 341 340 343 311 312 298 310 308 300 304 308 306 302 299 297 301 302 300 301 302 302 306 304 304 303 305 305 311 312 311 308 309 311 315 314 311 305 324
314 315 316 326 334 351 359 336 331 317 309 293 309 308 308 309 308 304 302 305 304 305 308 310 309 306 308 305 304 305 303 304 305 311 310 305 303 300 305 309 312 306 301
300 305 313 314 307 304 309 307 306 313 317 315 297 311 320 320 314 309 302 298 302 305 310 313 316 314 308 309 307 305 305 306 305 302 300 302 306 311 315 316 313 308 301
306 302 302 304 303 300 299 294 292 300 311 312 314 318 318 319 325 324 316 307 298 296 299 302 306 307 309 313 311 307 308 308 306 305 305 305 305 303 305 313 314 311 299
305 306 300 295 291 292 296 300 299 301 305 311 314 319 320 321 319 326 324 319 313 313 298 299 303 303 303 305 309 309 310 310 307 305 304 305 306 306 306 305 305 303 300
298 300 303 292 289 298 303 304 304 303 301 303 306 309 313 314 316 318 320 317 314 319 313 304 305 306 303 304 309 306 300 303 302 304 305 304 305 307 307 306 307 307 308
297 294 294 295 297 298 306 306 304 304 300 299 301 303 307 307 310 309 308 308 312 312 311 308 310 313 316 310 316 315 310 307 303 301 302 304 304 304 305 307 306 307 305
297 295 290 291 292 297 299 299 300 300 301 299 303 301 302 303 304 306 309 308 307 309 308 312 311 311 311 313 314 313 312 312 309 307 305 304 302 303 304 305 305 304 303
294 291 290 291 293 294 295 299 304 303 303 303 303 303 306 308 307 306 305 308 309 310 312 311 312 315 315 314 313 313 314 313 311 309 307 306 304 302 303 303 303 303 302
290 290 290 289 290 290 291 291 293 299 304 304 304 305 306 307 309 308 308 307 312 311 310 313 312 313 312 314 315 313 312 314 312 310 309 307 305 303 302 302 301 300 299
292 292 292 292 291 291 291 291 292 292 292 294 303 305 308 308 311 312 311 311 312 314 313 313 312 311 310 311 311 312 311 311 310 310 308 308 307 307 305 304 303 300 299
291 291 291 293 293 292 292 291 292 293 293 295 297 302 305 308 313 314 314 313 312 313 315 315 315 315 313 313 311 310 310 309 309 309 308 307 306 306 304 303 303 302 302
294 297 296 297 296 296 295 294 293 293 294 296 297 301 303 305 307 310 313 315 314 315 316 315 316 315 315 313 312 311 310 309 308 307 306 307 306 305 303 301 301 300 300
294 292 291 293 293 294 295 294 294 294 295 296 298 303 306 303 307 309 311 313 314 315 315 315 315 315 315 314 313 312 310 309 308 307 306 305 305 303 302 301 301 299 297
288 288 286 288 290 291 292 295 296 296 297 298 300 302 307 304 306 308 311 312 314 315 316 316 316 316 316 315 314 313 312 310 310 309 307 305 304 303 302 301 299 298 297
279 281 283 286 288 290 289 291 293 295 296 298 300 301 304 306 307 308 310 312 313 314 316 316 316 316 317 317 317 315 313 312 311 310 308 306 305 304 303 301 299 298 296
269 272 276 280 283 286 287 289 292 293 296 298 300 303 305 307 308 309 311 313 314 316 317 317 318 317 318 318 318 316 315 314 312 310 308 306 304 303 302 301 299 298 296
261 265 269 273 278 281 286 287 291 295 298 299 301 304 306 309 311 313 314 315 316 317 318 319 320 320 320 320 319 319 318 315 313 311 310 307 304 302 300 299 298 298 296
258 256 257 267 274 279 284 288 292 296 298 302 305 307 308 309 312 314 316 317 318 318 318 320 321 322 322 322 322 321 319 318 317 315 313 311 308 306 304 302 300 297 296